Simultaneous Nadir Overpasses (SNOs) Predictions

Prediction of SNOs between LANDSAT-8 and METOP-A Satellite Orbit:

Table of predicted SNOs for the next 14.0 days since TLE Epoch: 9/8/2018
Index Date (LANDSAT-8) Time (LANDSAT-8) Lat,Lon (LANDSAT-8) SZA (LANDSAT-8 ) Date (METOP-A) Time (METOP-A) Lat,Lon (METOP-A) SZA (METOP-A ) Distance(km) Time Diff (sec)
1 09/08/2018 06:41:21 -81.40, -55.52 101.72 09/08/2018 06:40:45 -81.40, -55.43 101.73 1.54 36
2 09/08/2018 07:30:47 81.40, 112.28 78.32 09/08/2018 07:31:24 81.40, 112.46 78.36 3.06 37
3 09/11/2018 02:15:36 -81.40, 10.96 100.63 09/11/2018 02:15:00 -81.40, 11.07 100.63 1.77 36
4 09/11/2018 03:05:02 81.41, 178.73 79.41 09/11/2018 03:05:40 81.40, 178.55 79.40 3.10 38
5 09/13/2018 21:49:52 -81.40, 77.42 99.53 09/13/2018 21:49:16 -81.40, 77.55 99.53 2.13 36
6 09/13/2018 22:39:18 81.40,-114.84 80.50 09/13/2018 22:39:56 81.40,-114.98 80.50 2.37 38
7 09/16/2018 17:24:08 -81.40, 143.86 98.43 09/16/2018 17:23:32 -81.40, 144.01 98.43 2.63 36
8 09/16/2018 18:13:34 81.40, -48.44 81.60 09/16/2018 18:14:12 81.40, -48.52 81.61 1.44 38
9 09/19/2018 12:58:23 -81.40,-149.73 97.32 09/19/2018 12:57:47 -81.40,-149.53 97.31 3.29 36




NCC Satellite Simultaneous Nadir Overpasses (SNOs) Prediction Service
